This is the latest recevied weather packets stored in our database for station/object KB9MLJ. If no packets are shown the sender has not sent any weather packets the latest 10 day(s).
| Time | Temp. | Humidity | Pressure | Rain* | Wind** | Luminosity | Snow |
|---|---|---|---|---|---|---|---|
| 1777837459 | 17.22° C | 48% | 1010.2 hPa | 0 mm | - | 429 W/m² | - |
| 1777837154 | 17.22° C | 48% | 1010.2 hPa | 0 mm | - | 461 W/m² | - |
| 1777836850 | 16.67° C | 47% | 1010.2 hPa | 0 mm | - | 402 W/m² | - |
| 1777836546 | 16.67° C | 47% | 1010.2 hPa | 0 mm | - | 318 W/m² | - |
| 1777836242 | 16.67° C | 49% | 1010.5 hPa | 0 mm | - | 288 W/m² | - |
| 1777835938 | 17.22° C | 48% | 1010.2 hPa | 0 mm | - | 248 W/m² | - |
| 1777835636 | 17.22° C | 48% | 1010.2 hPa | 0 mm | - | 500 W/m² | - |
| 1777835332 | 17.22° C | 48% | 1010.5 hPa | 0 mm | - | 802 W/m² | - |
| 1777835029 | 17.22° C | 51% | 1010.5 hPa | 0 mm | - | 446 W/m² | - |
| 1777834726 | 16.67° C | 52% | 1010.9 hPa | 0 mm | - | 709 W/m² | - |
| 1777834423 | 16.67° C | 52% | 1010.5 hPa | 0 mm | - | 688 W/m² | - |
| 1777834122 | 16.67° C | 53% | 1011.2 hPa | 0 mm | - | 366 W/m² | - |
| 1777833819 | 16.11° C | 52% | 1010.9 hPa | 0 mm | - | 392 W/m² | - |
| 1777833514 | 16.11° C | 52% | 1011.2 hPa | 0 mm | - | 324 W/m² | - |
| 1777833212 | 16.67° C | 50% | 1011.7 hPa | 0 mm | - | 444 W/m² | - |
| 1777832909 | 16.67° C | 51% | 1011.7 hPa | 0 mm | - | 470 W/m² | - |
| 1777832609 | 16.11° C | 51% | 1011.7 hPa | 0 mm | - | 408 W/m² | - |
| 1777832305 | 15.56° C | 54% | 1012 hPa | 0 mm | - | 422 W/m² | - |
| 1777832002 | 15° C | 55% | 1012.3 hPa | 0 mm | - | 412 W/m² | - |
| 1777831698 | 15° C | 56% | 1012 hPa | 0 mm | - | 321 W/m² | - |
| 1777831397 | 14.44° C | 58% | 1012.7 hPa | 0 mm | - | 317 W/m² | - |
| 1777831093 | 14.44° C | 58% | 1012.7 hPa | 0 mm | - | 273 W/m² | - |
| 1777830791 | 14.44° C | 58% | 1013 hPa | 0 mm | - | 368 W/m² | - |
| 1777830486 | 13.89° C | 60% | 1013.3 hPa | 0 mm | - | 534 W/m² | - |
| 1777830185 | 13.33° C | 61% | 1013.3 hPa | 0 mm | - | 354 W/m² | - |
* Rain latest hour (hover to see other rain measurements)
** Current wind speed in m/s (hover to see current wind gust speed)